ESUT Weather Reports


time (UTC)temp
C
wind
direction
speed
KPH
gust
KPH
rain 1hr
cm
rain 24hr
cm
rain mn
cm
humidity
%
barometer
mb
20260504173311 1 310 14.5 0.0 0.00 0.00 0.00 64 996.0
20260504170310 1 320 19.3 0.0 0.00 0.00 0.00 69 995.0
20260504160308 2 300 20.9 0.0 0.00 0.00 0.00 69 995.0
20260504150308 2 300 20.9 0.0 0.00 0.00 0.00 69 995.0
20260504140309 2 260 22.5 0.0 0.00 0.00 0.00 64 995.0
20260504130308 2 280 22.5 0.0 0.00 0.00 0.00 69 995.0
20260504120308 3 270 19.3 0.0 0.00 0.00 0.00 60 995.0
20260504110307 3 260 22.5 0.0 0.00 0.00 0.00 64 995.0
20260504100307 3 230 19.3 0.0 0.00 0.00 0.00 60 995.0
20260504080307 1 150 20.9 0.0 0.00 0.00 0.00 69 995.0
20260504070308 1 150 19.3 0.0 0.00 0.00 0.00 59 995.0
20260504050307 1 150 20.9 0.0 0.00 0.00 0.00 59 996.0
20260504043309 0 150 14.5 0.0 0.00 0.00 0.00 64 997.0
20260504040307 0 130 14.5 0.0 0.00 0.00 0.00 69 997.0
20260504033306 -1 140 12.9 0.0 0.00 0.00 0.00 74 998.0
20260504030307 -2 150 11.3 0.0 0.00 0.00 0.00 79 998.0
20260504023308 -1 140 12.9 0.0 0.00 0.00 0.00 74 998.0
20260504020307 -2 140 12.9 0.0 0.00 0.00 0.00 79 999.0
20260504013308 -1 140 12.9 0.0 0.00 0.00 0.00 74 999.0
20260504010308 -1 150 11.3 0.0 0.00 0.00 0.00 74 1000.0
20260504003307 0 150 16.1 0.0 0.00 0.00 0.00 69 1000.0
20260504000308 -1 150 12.9 0.0 0.00 0.00 0.00 74 1000.0
20260503233306 -1 150 8.0 0.0 0.00 0.00 0.00 74 1001.0
20260503230308 0 130 4.8 0.0 0.00 0.00 0.00 69 1001.0
20260503223308 0 150 9.7 0.0 0.00 0.00 0.00 74 1001.0
20260503220308 0 160 12.9 0.0 0.00 0.00 0.00 69 1002.0
20260503213306 0 160 9.7 0.0 0.00 0.00 0.00 69 1002.0
20260503210306 0 160 11.3 0.0 0.00 0.00 0.00 64 1002.0
20260503203306 0 160 11.3 0.0 0.00 0.00 0.00 64 1003.0
20260503200309 0 170 11.3 0.0 0.00 0.00 0.00 64 1003.0
20260503193308 0 140 11.3 0.0 0.00 0.00 0.00 64 1003.0
20260503190310 0 180 9.7 0.0 0.00 0.00 0.00 64 1003.0
20260503183309 0 190 12.9 0.0 0.00 0.00 0.00 64 1003.0
20260503180309 1 180 12.9 0.0 0.00 0.00 0.00 59 1003.0